Tracking 34794 objects as of 19-Jul-2026
HD Live streaming from Space Station
objects crossing your sky now

DRAGRACER 2(AUGURY)

Track DRAGRACER 2(AUGURY) now!
10-day predictions


NORAD ID: 46955
Int'l Code: 2020-085AC
Perigee: 352.6 km
Apogee: 360.4 km
Inclination: 97.6 °
Period: 91.5 minutes
Semi major axis: 6727 km
RCS: Unknown
Launch date: November 20, 2020
Source: United States (US)
Launch site: Rocket Lab Launch Complex (RLLC)
Your satellite tracking list
Your tracking list is empty




NASA's NSSDC Master Catalog

Two Line Element Set (TLE):
1 46955U 20085AC  26199.78898597  .00027591  00000-0  20039-3 0  9993
2 46955  97.5777  38.7161 0005743 138.0797 222.0907 15.73339640316837
Source of the keplerian elements: AFSPC